Regional Weather Roundup
Issued by NWS Albany, NY

Home | Current Version | Previous Version | Graphics & Text | Print | Product List | Glossary Off
Versions: 1 2 3 4 5 6 7 8 9 10 11 12 13 14 15 16 17 18 19 20 21 22 23 24 25 26 27 28 29 30 31 32 33 34 35 36 37 38 39 40 41 42 43 44 45 46 47 48 49 50

433
ASUS41 KALY 281810
RWRALY

NEW YORK STATE HOURLY WEATHER ROUNDUP
NATIONAL WEATHER SERVICE ALBANY NY
200 PM EDT FRI APR 28 2017

NOTE: "FAIR" INDICATES FEW OR NO CLOUDS BELOW 12,000 FEET WITH NO
SIGNIFICANT WEATHER AND/OR NO OBSTRUCTIONS TO VISIBILITY.

NYZ032-033-038>043-046>054-057>066-NYZ062>081-082-084-281900-
EAST


CITY           SKY/WX    TMP DP  RH WIND       PRES   REMARKS
ALBANY         MOSUNNY   76  52  43 W10G16    29.97F
GLENS FALLS    MOSUNNY   76  42  29 VRB6      29.93F
POUGHKEEPSIE   SUNNY     80  56  43 E6        29.94F
NEWBURGH       MOSUNNY   81  57  44 W16       29.98F
MONTGOMERY     MOSUNNY   83  53  35 SW10      29.93F
WHITE PLAINS   MOSUNNY   78  62  57 SE12      29.98F
ISLIP          MOSUNNY   73  62  68 S10       30.00R
NEW YORK CITY  MOSUNNY   82  57  42 VRB6      29.98F
CENTRAL PARK   SUNNY     82  56  40 VRB6      30.01F
$$

NYZ005>009-017-018-044>046-055-056-281900-
CENTRAL


CITY           SKY/WX    TMP DP  RH WIND       PRES   REMARKS
FULTON         CLOUDY    63  46  54 NW8       30.01S
SYRACUSE       CLOUDY    68  46  45 W8        29.99S
ROME           SUNNY     66  46  48 W6        30.01S
ELMIRA         MOSUNNY   74  38  27 SW8       29.99F
BINGHAMTON     MOSUNNY   68  42  38 W10G18    30.02R
MONTICELLO     SUNNY     75  46  35 W5G18     30.01F
$$

NYZ026>034-041>043-087-281900-
NORTH


CITY           SKY/WX    TMP DP  RH WIND       PRES   REMARKS
WATERTOWN        N/A    N/A N/A N/A MISG      30.02R
FORT DRUM      NOT AVBL
OGDENSBURG     FAIR      65  48  54 SW14G22   29.98R
MASSENA        MOSUNNY   66  47  50 SW15G23   29.95F
SARANAC LAKE   SUNNY     66  40  38 SW8       29.94F
PLATTSBURGH    SUNNY     77  37  23 SW9G21    29.91F
$$

NYZ001>004-010>016-019>021-085-281900-
WEST


CITY           SKY/WX    TMP DP  RH WIND       PRES   REMARKS
NIAGARA FALLS  SUNNY     64  45  49 SW15      30.00F
BUFFALO        MOSUNNY   57  43  59 SW16      30.02S
DUNKIRK        SUNNY     55  44  66 W12       30.05R
JAMESTOWN      SUNNY     64  41  42 SW12G18   30.03R
WELLSVILLE     SUNNY     69  37  30 SW12G23   30.05R
ROCHESTER      PTSUNNY   66  45  46 SW8       30.01F
PENN YAN       MOSUNNY   71  37  28 SW9       30.00F
$$

             KEY
       WCI = WIND CHILL INDEX
       VSB = VISIBILITY
       HX  = HEAT INDEX
$$




USA.gov is the U.S. government's official web portal to all federal, state and local government web resources and services.